User: anonymous   Login
Location: Koussan�
(15.2012°N, 12.5548°W)
Time: 11:41:02
(UTC+00:00)
Language:

Helios 1A Rocket - Orbit

View from above orbital plane
View from above orbital plane
View from above satellite
View from above satellite

Ground track
Ground track

The orbit data is extracted from the following two-line orbital elements,

1 23608U 95033D   21018.83137661  .00001091  00000-0  99077-4 0  9993
2 23608  98.3108  49.9894 0014928 245.8830 114.0829 14.97536691383670
Epoch (UTC): 18 January 2021 19:57:10
Eccentricity: 0.0014928
inclination: 98.3108°
perigee height: 564 km
apogee height: 585 km
right ascension of ascending node: 49.9894°
argument of perigee: 245.8830°
revolutions per day: 14.97536691
mean anomaly at epoch: 114.0829°
orbit number at epoch: 38367

The dashed part of the orbit path shows where the satellite is in the earth's shadow,  

DLR